[[{"header":{"parameterUnit":"m.s-1","parameterCategory":1,"la1":30.2992,"la2":30.254,"lo1":-89.0895,"lo2":-89.0443,"dy":0.0025,"dx":0.0025,"nx":19,"ny":19,"refTime":"2026-05-15T09:00:00:Z","depth":0,"parameterNumber":2,"parameterNumberName":"U-component_of_WINDS"},"data":[0,0,0,-2.3688,-2.369,-2.3783,-2.3783,-2.3918,-2.3919,0,0,0,0,0,0,0,0,0,0,0,-2.3671,-2.3672,-2.3688,-2.369,-2.3783,-2.3783,-2.3917,-2.3919,0,0,0,0,0,0,0,0,0,0,0,-2.367,-2.3672,-2.3673,-2.3691,-2.3783,-2.3783,-2.3917,-2.3841,0,0,0,0,0,0,0,0,0,0,-2.3748,-2.3743,-2.3671,-2.3673,-2.3691,-2.3783,-2.3783,-2.3837,-2.3846,-2.3883,0,-2.3919,0,-2.3921,-2.3929,-2.393,0,0,0,-2.3682,-2.3736,-2.3752,-2.3674,-2.3692,-2.3783,-2.3739,-2.3842,-2.3852,-2.3894,-2.3921,-2.3925,-2.3924,-2.393,-2.3931,-2.4172,-2.4173,0,0,-2.3677,-2.3693,-2.3745,-2.3759,-2.3746,-2.3736,-2.3742,-2.3848,-2.3877,-2.3921,-2.3928,-2.3926,-2.3931,-2.3932,-2.417,-2.4172,0,0,0,-2.3668,-2.369,-2.3702,-2.3753,-2.3769,-2.3739,-2.3746,-2.3872,-2.3875,-2.3929,-2.3927,-2.3932,-2.3934,-2.4169,-2.4171,-2.4261,0,0,0,-2.3664,-2.3684,-2.3701,-2.3711,-2.3768,-2.3822,-2.3768,-2.3868,-2.3879,-2.3927,-2.3932,-2.3935,-2.4167,-2.417,-2.4255,-2.4301,0,0,0,-2.3661,-2.3684,-2.3701,-2.3712,-2.3752,-2.382,-2.3829,-2.387,-2.3879,-2.393,-2.3936,-2.4166,-2.4169,-2.425,-2.4292,-2.4369,0,0,0,-2.3662,-2.3779,-2.3703,-2.3833,-2.3752,-2.3876,-2.3828,-2.3919,-2.3974,-2.3933,-2.4167,-2.4171,-2.4248,-2.4286,-2.4363,-2.4437,-2.4469,0,0,-2.3818,-2.3799,-2.3874,-2.3808,-2.395,-2.386,-2.4014,-2.4049,-2.4039,-2.4128,-2.4133,-2.4257,-2.4291,-2.4368,-2.4644,-2.467,0,0,0,-2.3929,-2.3983,-2.4017,-2.407,-2.41,-2.4129,-2.4139,-2.4152,-2.4226,-2.4088,-2.4305,-2.4325,-2.4369,-2.4404,-2.4426,-2.4462,-2.4187,-2.4187,-2.4187,-2.4173,-2.4154,-2.4277,-2.427,-2.4323,-2.4332,-2.4372,-2.439,-2.4356,-2.4408,-2.4434,-2.4604,-2.4645,-2.4661,-2.4699,-2.4471,-2.4471,-2.4472,-2.4472,-2.44,-2.4474,-2.4426,-2.4529,-2.4508,-2.4593,-2.4607,-2.4579,-2.4655,-2.4582,-2.462,-2.4542,-2.469,-2.4722,-2.4479,-2.4477,-2.4477,-2.4476,-2.4475,-2.4558,-2.459,-2.4604,-2.468,-2.474,-2.4728,-2.4804,-2.4782,-2.4762,-2.48,-2.4825,-2.4824,-2.4819,-2.4813,-2.4814,-2.4815,-2.4815,-2.4816,-2.4816,-2.4715,-2.4729,-2.4796,-2.4838,-2.4869,-2.4908,-2.4918,-2.4948,-2.4976,-2.4954,-2.4954,-2.4915,-2.4708,-2.4656,-2.4825,-2.4823,-2.4822,-2.4821,-2.4821,-2.4953,-2.4896,-2.4999,-2.5031,-2.5079,-2.514,-2.5112,-2.5175,-2.5197,-2.5235,-2.5187,-2.5038,-2.5015,-2.4998,-2.4955,-2.5191,-2.5191,-2.5191,-2.5191,-2.5085,-2.5072,-2.5173,-2.5226,-2.5274,-2.526,-2.5376,-2.5386,-2.5386,-2.5398,-2.5361,-2.5302,-2.5285,-2.5273,-2.5249,-2.5209,-2.5504,-2.5504,-2.5505,-2.523,-2.5221,-2.5325,-2.5326,-2.5361,-2.5392,-2.5501,-2.5563,-2.5551,-2.5517,-2.5407,-2.5394,-2.5299,-2.5269,-2.5232,-2.5196,-2.5121,0,0]},{"header":{"parameterUnit":"m.s-1","parameterCategory":1,"la1":30.2992,"la2":30.254,"lo1":-89.0895,"lo2":-89.0443,"dy":0.0025,"dx":0.0025,"nx":19,"ny":19,"refTime":"2026-05-15T09:00:00:Z","depth":0,"parameterNumber":3,"parameterNumberName":"V-component_of_WINDS"},"data":[0,0,0,-1.1138,-1.114,-1.1208,-1.1208,-1.1288,-1.1289,0,0,0,0,0,0,0,0,0,0,0,-1.1116,-1.1116,-1.1138,-1.114,-1.1208,-1.1208,-1.1288,-1.1289,0,0,0,0,0,0,0,0,0,0,0,-1.1115,-1.1116,-1.1117,-1.114,-1.1208,-1.1208,-1.1288,-1.1239,0,0,0,0,0,0,0,0,0,0,-1.1174,-1.1151,-1.1116,-1.1117,-1.1141,-1.1208,-1.1208,-1.1236,-1.1242,-1.1255,0,-1.1267,0,-1.1279,-1.1294,-1.1294,0,0,0,-1.1142,-1.1146,-1.1167,-1.1117,-1.1141,-1.1207,-1.1178,-1.1239,-1.1245,-1.1262,-1.1268,-1.1271,-1.128,-1.1294,-1.1294,-1.1366,-1.1366,0,0,-1.1138,-1.1126,-1.1163,-1.1171,-1.1161,-1.1175,-1.118,-1.1243,-1.1249,-1.1268,-1.1273,-1.1282,-1.1295,-1.1295,-1.1365,-1.1366,0,0,0,-1.1126,-1.1124,-1.1143,-1.1167,-1.118,-1.1177,-1.1182,-1.1246,-1.1253,-1.1274,-1.1283,-1.1295,-1.1296,-1.1365,-1.1365,-1.1366,0,0,0,-1.1124,-1.1117,-1.1141,-1.1135,-1.1179,-1.1214,-1.1184,-1.1249,-1.1256,-1.1282,-1.1295,-1.1297,-1.1365,-1.1365,-1.1365,-1.1368,0,0,0,-1.1112,-1.1115,-1.1124,-1.1134,-1.1163,-1.1213,-1.1224,-1.1251,-1.1262,-1.1294,-1.1297,-1.1365,-1.1365,-1.1365,-1.1367,-1.1382,0,0,0,-1.1096,-1.1124,-1.1124,-1.1159,-1.1162,-1.1214,-1.1224,-1.1263,-1.1291,-1.1295,-1.1365,-1.1365,-1.1365,-1.1367,-1.1382,-1.1393,-1.1396,0,0,-1.1125,-1.1127,-1.1148,-1.115,-1.1199,-1.1204,-1.1252,-1.1289,-1.1303,-1.1343,-1.1345,-1.1366,-1.1367,-1.1382,-1.1422,-1.1425,0,0,0,-1.1153,-1.1168,-1.1184,-1.121,-1.1239,-1.1263,-1.1293,-1.1307,-1.1342,-1.1322,-1.1376,-1.1377,-1.1387,-1.1392,-1.1395,-1.1403,-1.1368,-1.1368,-1.1368,-1.1177,-1.1193,-1.1228,-1.1252,-1.1277,-1.1308,-1.1329,-1.1352,-1.1361,-1.1373,-1.1385,-1.1407,-1.1414,-1.1416,-1.1424,-1.1393,-1.1393,-1.1393,-1.1393,-1.122,-1.1243,-1.1253,-1.1292,-1.1307,-1.1339,-1.1369,-1.1374,-1.1405,-1.14,-1.1409,-1.1402,-1.1418,-1.1426,-1.1393,-1.1393,-1.1393,-1.1393,-1.1393,-1.1237,-1.125,-1.1266,-1.1304,-1.1332,-1.1354,-1.1383,-1.1397,-1.141,-1.1419,-1.1432,-1.1432,-1.1433,-1.1424,-1.1424,-1.1425,-1.1425,-1.1425,-1.1425,-1.1247,-1.1265,-1.1288,-1.132,-1.1338,-1.1363,-1.1393,-1.141,-1.1433,-1.144,-1.144,-1.1447,-1.1417,-1.1409,-1.1426,-1.1426,-1.1426,-1.1425,-1.1425,-1.1284,-1.1278,-1.1313,-1.1331,-1.1368,-1.1394,-1.1411,-1.1445,-1.1461,-1.1474,-1.1479,-1.1455,-1.1458,-1.1457,-1.145,-1.1476,-1.1476,-1.1476,-1.1476,-1.1297,-1.13,-1.1339,-1.1366,-1.1394,-1.1413,-1.1451,-1.1473,-1.1496,-1.1506,-1.1504,-1.1497,-1.1494,-1.1499,-1.1496,-1.149,-1.1526,-1.1526,-1.1526,-1.132,-1.1326,-1.1357,-1.1379,-1.1409,-1.1433,-1.1469,-1.1498,-1.1523,-1.1528,-1.1514,-1.1512,-1.15,-1.1496,-1.1501,-1.1496,-1.1485,0,0]}]]